Tracking 23114 objects as of 14-May-2021
HD Live streaming from Space Station
objects crossing your sky now

SL-04 R/B


SL-04 R/B is no longer on orbit


NORAD ID: 39220
Int'l Code: 2013-039B
Perigee: N/A
Apogee: N/A
Inclination: N/A
Period: N/A
Semi major axis: N/A
RCS: N/A
Launch date: July 27, 2013
Source: Commonwealth of Independent States (former USSR) (CIS)
Launch site: TYURATAM MISSILE AND SPACE COMPLEX (TTMTR)
Decay date: 2013-07-30

Note: This is a ROCKET BODY
aabbcc
Your satellite tracking list
Your tracking list is empty




NASA's NSSDC Master Catalog

Two Line Element Set (TLE):
1 39220U 13039B   13211.05943927  .17107068  12604-4  13071-3 0  9991
2 39220 051.6196 254.5839 0009968 140.5975 220.4843 16.51988043   351
Source of the keplerian elements: AFSPC